www.pogodaiklimat.ru
Время
(UTC), дата
06 8.12
09 8.12
12 8.12
15 8.12
18 8.12
21 8.12
00 9.12
03 9.12
06 9.12
09 9.12
12 9.12
15 9.12
18 9.12
21 9.12
00 10.12
03 10.12
06 10.12
09 10.12
12 10.12
15 10.12
18 10.12
21 10.12
00 11.12
03 11.12
06 11.12
09 11.12
12 11.12
15 11.12
18 11.12
21 11.12
00 12.12
03 12.12
06 12.12
09 12.12
12 12.12
15 12.12
18 12.12
21 12.12
00 13.12
03 13.12
06 13.12
09 13.12
12 13.12
15 13.12
18 13.12
21 13.12
00 14.12
03 14.12
06 14.12
09 14.12
12 14.12
15 14.12
18 14.12
21 14.12
00 15.12
03 15.12
Ветер
(напр.,м/с)
Видим. Явления Облачность Т
(С)
Тd
(С)
f
(%)
Тe
(С)
Тes
(С)
Комфортность P
(гПа)
Po
(гПа)
Тmin
(С)
Tmax
(С)
R
(мм)
R24
(мм)
S
(см)
СВ 1 50 км 2 балла -8.3 -15.5 56 -10 -10 1027.7 1014.7
СВ 1 20 км 3/0
[Ci sp]
-13.6 -17.1 75 -16 -16 1029.3 1016.0 -7.9
В 1 20 км 3/0
[Ci sp]
-16.8 -18.5 87 -20 -20 1027.6 1014.0
Ю 1 20 км ясно -14.7 -17.7 78 -17 -17 1028.0 1014.7
Ю 1 20 км 4 балла -11.8 -17.0 65 -14 -14 1026.5 1013.3
ЮЗ 1 20 км 10/0
[Ci sp]
-9.8 -14.9 66 -12 -12 1025.1 1012.0 -17.9 4
ЮВ 1 20 км 10/0
[As trans]
-8.4 -13.2 68 -11 -11 1025.0 1012.0
штиль 0 20 км 7 баллов -2.9 -8.5 65 -4 -2 1023.4 1010.7
С 1 20 км 10 баллов -3.7 -8.2 71 -6 -6 1020.7 1008.0
штиль 0 20 км 10/0
[As op]
-8.1 -10.3 84 -9 -9 1019.6 1006.7 -2.7
штиль 0 20 км 10/0
[As op]
-9.5 -10.7 91 -10 -10 1018.7 1005.6
Ю 1 20 км 10 баллов -7.9 -9.5 88 -10 -10 1018.2 1005.3
штиль 0 20 км 10 баллов -5.6 -8.0 83 -6 -6 1016.7 1004.0
штиль 0 20 км 10/0
[As trans]
-5.0 -7.0 86 -6 -6 1016.7 1004.0 -9.5 4
СЗ 2 4000 м дымка 10/0
[As op]
-5.6 -6.1 96 -10 -10 1020.8 1008.0
штиль 0 20 км 2 балла -3.2 -9.4 62 -4 -1 1020.7 1008.0
СЗ 1 20 км 2 балла -2.9 -9.6 60 -5 -4 1020.7 1008.0
Ю 2 20 км ясно -7.6 -10.4 80 -12 -12 1020.9 1008.0 -1.4
Ю 1 20 км 10/0
[As trans]
-11.8 -13.0 91 -14 -14 1019.8 1006.5
ЮВ 2 20 км 4 балла -12.9 -14.5 88 -18 -18 1019.8 1006.7
Ю 2 20 км 4 балла -9.3 -12.4 78 -14 -14 1019.7 1006.7
Ю 2 20 км 3/0
[Ci sp]
-10.4 -12.6 84 -15 -15 1017.0 1004.0 -13.0 3
Ю 1 20 км 8/0
[Ci sp]
-8.4 -11.2 80 -11 -11 1016.9 1004.0
С 2 10 км слаб. снег 10 баллов -6.1 -7.6 89 -11 -11 1012.7 1000.0
С 3 4000 м слаб. снег 10 баллов -8.5 -9.6 92 -14 -14 1011.5 998.7
С 3 4000 м слаб. снег 10/0 600 м
[As op]
-10.1 -11.1 92 -16 -16 1011.6 998.7 -5.6 5
С 3 4000 м 10/0 600 м
[As op]
-11.3 -12.6 90 -17 -17 1012.6 999.5
С 3
{11}
4000 м слаб. снег 10/0 600 м
[As op]
-12.4 -13.7 90 -18 -18 1014.3 1001.1
СЗ 4 4000 м слаб. снег 10 баллов -12.8 -15.2 82 -20 -20 1017.1 1004.0
СЗ 1 20 км {снег} 1/0
[Ci sp]
-15.4 -17.3 85 -18 -18 1018.6 1005.3 -15.6 6 14
СЗ 1 20 км {снег} 3/0
[Ac trans]
-14.8 -17.3 81 -17 -17 1021.3 1008.0 -18.6
З 2 20 км 10 баллов -10.1 -16.0 62 -14 -14 1021.0 1008.0
З 2 20 км 4 балла -8.6 -16.4 53 -13 -12 1022.3 1009.3
Ю 2 20 км 3/0
[Ci sp]
-12.6 -17.4 67 -17 -17 1022.5 1009.3 -8.4
Ю 3 20 км 4/0
[Ci sp]
-12.3 -16.9 68 -18 -18 1023.9 1010.6
Ю 2 20 км ясно -12.3 -17.1 67 -17 -17 1025.2 1012.0
Ю 3 20 км ясно -11.9 -16.9 66 -18 -18 1025.2 1012.0
Ю 3 20 км ясно -11.4 -17.0 63 -17 -17 1023.8 1010.7 -13.2 13
Ю 3 20 км 3/0
[Ci sp]
-10.0 -16.5 59 -16 -15 1023.7 1010.7
ЮЗ 6 20 км 9 баллов -2.5 -13.6 42 -9 -9 1020.6 1008.0
ЮЗ 4 20 км 10 баллов -1.6 -12.0 45 -7 -7 1019.3 1006.7
штиль 0 20 км 10/0
[As op]
-2.2 -10.5 53 -3 -3 1019.3 1006.7 -1.5
СВ 1 20 км 10/0
[As op]
-10.0 -12.9 79 -12 -12 1018.6 1005.5
штиль 0 4000 м слаб. снег 10 баллов -8.3 -10.5 84 -9 -9 1019.6 1006.7
З 1 4000 м слаб. снег 10 баллов -7.6 -8.5 93 -10 -10 1022.2 1009.3
С 3 20 км в посл. час снег 10/0
[As trans]
-8.1 -9.4 90 -14 -14 1023.6 1010.7 -10.5 0.8 14
СВ 1 10 км слаб. снег 10/0
[As op]
-9.5 -11.7 84 -12 -12 1026.4 1013.3
СЗ 4 4000 м слаб. снег 10 баллов -9.3 -13.2 73 -16 -16 1027.8 1014.7
СЗ 3 20 км 4 балла -9.2 -14.7 64 -15 -15 1029.1 1016.0
ЮЗ 1 20 км 1/0
[Ci sp]
-15.9 -17.6 87 -19 -19 1030.7 1017.3 -7.9 0.6
Ю 2 20 км ясно -20.2 -22.9 79 -26 -26 1032.4 1018.7
Ю 1 20 км ясно -21.1 -22.9 85 -24 -24 1033.8 1020.0
Ю 2 20 км ясно -18.5 -20.4 85 -24 -24 1033.6 1020.0
Ю 2 20 км ясно -22.6 -25.1 80 -29 -29 1032.5 1018.7 -24.4 14
Ю 2 20 км ясно -17.9 -19.8 85 -23 -23 1033.6 1020.0
ЮВ 2 20 км 7 баллов -5.0 -14.0 49 -9 -8 1030.2 1017.3
Местоположение метеостанции Свиягино (Приморский край, Россия): широта 44.80 долгота 133.00 высота над уровнем моря 99 м.
В архиве по умолчанию представлена погода в Свиягино за последнюю неделю. Архивные данные за месяц целиком и за предыдущие месяцы, начиная с января 2011 года, Вы можете получить, выбрав интересующий диапазон дат из раскрывающегося списка и нажав кнопку "Найти!".
*Определитесь, кто Вы:
Внимание! Время в таблицах - всемирное. Для получения местного времени необходимо прибавить поправку, которая равна 10 ч.
Смотрите также архив погоды в соседних городах и на ближайших метеорологических станциях:
Партнеры нашего сайта:      
Пояснения к столбцам:
  • Ветер - указаны скорость ветра в м/с - средняя за 10 мин, порывы в срок и между сроками (в фигурных скобках) и направление, откуда дует ветер: С - северный,
  • СВ - северо-восточный, В - восточный, ЮВ - юго-восточный, Ю - южный, ЮЗ - юго-западный, З - западный, СЗ - северо-западный.
  • Видимость - горизонтальная дальность видимости в метрах или километрах. При видимости от 1 до 10 км при отсутствии осадков обычно наблюдается дымка, при ухудшении видимости до 1 км и менее - туман. В сухую погоду видимость может ухудшаться дымом, пылью или мглою.
  • Явления - указаны атмосферные явления, наблюдавшиеся в срок или в последний час перед сроком; фигурными скобками обозначены явления, наблюдавшиеся между сроками (за 1-3 часа до срока); квадратными скобками обозначены град или гололедные отложения с указанием их диаметра в мм.
  • Облачность - указаны через наклонную черту общая и нижняя облачность в баллах и высота нижней границы облаков в метрах; квадратными скобками обозначены формы облаков: Ci - перистые, Cs - перисто-слоистые, Cc - перисто-кучевые, Ac - высококучевые, As - высокослоистые, Sc - слоисто-кучевые, Ns - слоисто-дождевые, Cu - кучевые, Cb - кучево-дождевые. Подробнее классификацию облаков см. в Атласе облаков (PDF).
  • T - Температура воздуха - температура, измеренная на высоте 2 м над землей.
  • Td - Температура точки росы - температура, при понижении до которой содержащийся в воздухе водяной пар достигнет насыщения.
  • f - Относительная влажность воздуха - влажноcть воздуха, измеренная на высоте 2 м над землей.
  • Te - Эффективная температура - температура, которую ощущает одетый по сезону человек в тени. Характеристика душности погоды. При расчете учитывается влияние влажности воздуха и скорости ветра на теплоощущения человека.
  • Tes - Эффективная температура на солнце - температура, которую ощущает человек, с поправкой на солнечный нагрев. Характеристика знойности погоды. Зависит от высоты солнца над горизонтом, облачности и скорости ветра. Ночью, в пасмурную погоду, а также при ветре 12 м/с и более поправка равна нулю.
  • P - Атмосферное давление - приведенное к уровню моря атмосферное давление.
  • Po - Атмосферное давление - измеренное на уровне метеостанции атмосферное давление.
  • Tmin - Минимальная температура - минимум температуры воздуха на высоте 2 м над землей.
  • Tmax - Максимальная температура - максимум температуры воздуха на высоте 2 м над землей.
  • R - Количество осадков - Количество выпавших осадков за период времени, мм. При наведении курсора мыши на число - период времени, за который выпало указанное количество осадков.
  • R24 - Количество осадков - Количество выпавших осадков за 24 часа, мм.
  • S - Снежный покров - Высота снежного покрова, см. При наведении курсора мыши на число - состояние снежного покрова и степень покрытия местности в баллах.